This is the latest recevied weather packets stored in our database for station/object DB0TV-13. If no packets are shown the sender has not sent any weather packets the latest 10 day(s).
| Time | Temp. | Humidity | Pressure | Rain* | Wind** | Luminosity | Snow |
|---|---|---|---|---|---|---|---|
| 1777407019 | 11.11° C | 51% | 1022.3 hPa | 0 mm | - | 0 W/m² | - |
| 1777406418 | 11.11° C | 51% | 1022.1 hPa | 0 mm | - | 0 W/m² | - |
| 1777405819 | 11.67° C | 50% | 1022 hPa | 0 mm | - | 0 W/m² | - |
| 1777405219 | 11.67° C | 50% | 1021.8 hPa | 0 mm | - | 0 W/m² | - |
| 1777404618 | 12.22° C | 50% | 1021.7 hPa | 0 mm | - | 0 W/m² | - |
| 1777404018 | 12.22° C | 50% | 1021.6 hPa | 0 mm | - | 0 W/m² | - |
| 1777403419 | 12.22° C | 50% | 1021.6 hPa | 0 mm | - | 0 W/m² | - |
| 1777402819 | 12.78° C | 50% | 1021.6 hPa | 0 mm | - | 0 W/m² | - |
| 1777402219 | 12.78° C | 51% | 1021.5 hPa | 0 mm | - | 3 W/m² | - |
| 1777401618 | 12.78° C | 52% | 1021.3 hPa | 0 mm | - | 8 W/m² | - |
| 1777401018 | 13.33° C | 52% | 1021.2 hPa | 0 mm | - | 12 W/m² | - |
| 1777400419 | 13.33° C | 52% | 1021.2 hPa | 0 mm | - | 16 W/m² | - |
| 1777399818 | 13.89° C | 51% | 1020.9 hPa | 0 mm | - | 19 W/m² | - |
| 1777399218 | 13.89° C | 51% | 1020.9 hPa | 0 mm | - | 22 W/m² | - |
| 1777398620 | 13.89° C | 51% | 1020.8 hPa | 0 mm | - | 25 W/m² | - |
| 1777398019 | 14.44° C | 51% | 1020.8 hPa | 0 mm | - | 27 W/m² | - |
| 1777397418 | 14.44° C | 51% | 1020.8 hPa | 0 mm | - | 31 W/m² | - |
| 1777396818 | 15° C | 50% | 1020.6 hPa | 0 mm | - | 68 W/m² | - |
| 1777396220 | 15° C | 50% | 1020.5 hPa | 0 mm | - | 181 W/m² | - |
| 1777395619 | 15.56° C | 49% | 1020.5 hPa | 0 mm | - | 207 W/m² | - |
| 1777395018 | 15.56° C | 49% | 1020.6 hPa | 0 mm | - | 238 W/m² | - |
| 1777394418 | 15.56° C | 50% | 1020.5 hPa | 0 mm | - | 266 W/m² | - |
| 1777393820 | 16.11° C | 49% | 1020.4 hPa | 0 mm | - | 293 W/m² | - |
| 1777393218 | 16.11° C | 49% | 1020.5 hPa | 0 mm | - | 321 W/m² | - |
| 1777392620 | 16.11° C | 48% | 1020.4 hPa | 0 mm | - | 347 W/m² | - |
* Rain latest hour (hover to see other rain measurements)
** Current wind speed in m/s (hover to see current wind gust speed)